Wind_Speed
44 52 55 58 59 60 61 52 60 62 57 53 51 49 47 45 45 45 46 44 45 46 45 46 46 42 42 40 41 40 40 41 38 37 36 42 43 43 42 46 40 32 40 38
42 49 57 59 63 65 65 59 60 66 62 54 50 48 48 47 48 48 47 47 47 48 49 49 46 47 45 45 42 43 41 42 40 38 38 43 40 42 43 45 36 32 38 45
40 40 44 52 56 58 60 56 58 60 58 53 51 47 46 46 46 47 48 48 49 50 51 50 49 50 49 45 44 45 45 41 37 36 32 40 39 37 39 40 30 35 32 43
36 37 39 40 41 46 45 50 47 51 48 44 43 42 43 47 49 49 51 50 50 52 52 52 52 50 51 47 44 45 45 41 37 35 33 36 38 38 35 34 27 34 37 39
34 33 31 33 33 33 33 35 35 37 39 42 45 47 48 49 51 52 52 54 54 55 55 55 54 53 51 48 46 46 43 40 37 35 30 35 33 35 34 31 25 28 34 35
36 35 35 37 39 41 42 43 45 46 48 49 50 51 52 53 57 56 56 57 59 60 59 58 57 57 53 49 47 45 43 42 39 34 30 32 33 34 33 29 25 29 32 35
42 43 43 45 45 47 47 49 51 53 53 53 55 57 59 58 59 59 60 61 61 61 61 61 59 58 57 54 50 46 43 42 39 33 32 31 31 34 32 29 26 25 29 31
47 47 47 49 51 52 53 55 56 58 57 57 60 61 61 62 63 63 60 58 56 57 61 64 62 58 58 54 52 47 44 41 40 34 32 30 26 31 30 27 20 22 25 25
49 50 52 53 55 57 58 60 61 62 59 57 63 63 62 62 61 62 62 59 59 61 63 63 64 63 58 57 54 47 42 40 38 32 32 28 27 30 27 25 23 19 19 21
53 54 56 57 60 62 62 63 63 65 64 61 62 62 62 59 59 61 56 52 56 57 58 61 65 66 59 57 57 52 43 41 35 29 31 24 25 28 25 22 20 17 18 18
58 59 61 62 63 63 63 60 61 63 68 63 62 54 55 50 50 45 36 44 45 44 42 45 53 63 58 55 57 55 47 39 35 30 27 23 23 25 24 19 18 16 16 15
62 63 64 65 64 62 58 55 55 56 64 59 58 52 42 38 37 39 36 40 34 36 37 36 36 44 49 48 56 57 50 38 32 27 24 21 20 23 22 15 13 15 13 12
63 63 63 60 58 54 50 50 45 48 52 52 50 29 35 34 35 39 38 36 38 37 34 36 32 33 47 44 52 50 43 39 34 28 22 19 16 21 20 14 11 12 11 9
59 57 54 50 48 48 45 44 40 41 43 44 24 32 32 31 35 33 37 40 42 40 37 37 30 34 40 37 44 47 38 37 34 27 21 22 14 19 18 13 10 9 9 4
53 52 51 49 47 45 44 41 33 36 38 31 32 31 29 29 26 27 35 33 35 35 36 37 35 32 31 38 41 44 40 36 31 26 26 19 16 17 16 12 9 7 7 4
46 47 46 45 44 42 42 35 34 31 29 38 31 31 31 29 24 22 18 27 31 35 30 29 26 34 31 42 44 43 43 38 34 28 24 22 17 17 14 11 9 7 6 6
39 39 39 39 39 40 39 30 29 29 36 34 31 29 24 24 18 23 26 27 30 28 25 25 27 34 40 40 42 43 42 38 35 30 26 22 19 18 16 9 8 7 6 6
38 37 36 35 36 36 32 29 31 32 34 30 29 25 15 18 16 21 26 27 28 24 22 23 31 33 39 44 39 42 40 37 35 31 27 25 21 19 20 13 8 7 7 7
33 33 34 34 32 33 27 32 32 36 32 30 31 26 22 19 14 14 25 20 22 30 27 30 33 35 39 39 38 37 34 35 34 32 30 27 24 20 19 18 17 14 11 9
30 30 31 28 29 29 30 34 33 37 30 32 29 22 21 16 18 11 13 23 20 26 30 33 41 40 39 41 36 33 33 33 33 32 29 28 26 24 22 22 20 20 18 14
27 28 26 25 28 31 34 34 35 30 29 29 22 22 20 19 23 18 12 17 20 25 27 30 29 33 36 43 40 36 35 33 33 32 30 29 27 25 25 24 22 22 23 21
22 22 22 23 29 33 34 34 30 24 24 26 26 23 21 20 23 21 19 19 20 23 25 30 27 25 34 39 38 37 36 34 33 32 30 28 26 25 26 26 27 26 24 25
20 19 21 25 33 34 35 30 26 16 10 17 14 16 19 22 24 24 25 24 22 24 26 25 27 28 33 35 34 35 34 33 32 31 30 26 24 24 23 25 27 28 29 25
18 19 23 34 38 35 30 29 23 10 16 17 18 18 19 25 27 26 23 21 22 27 27 27 23 24 29 33 34 34 34 33 30 28 27 25 24 24 24 25 26 29 29 28
21 26 34 41 38 38 31 30 14 10 15 14 11 17 22 22 23 23 19 19 23 26 28 25 25 23 28 30 33 33 31 28 26 25 24 24 24 24 24 23 24 27 28 28
28 34 41 43 41 36 27 19 14 16 16 15 15 15 19 21 21 20 21 22 18 14 17 22 22 23 26 27 28 27 25 23 23 24 24 24 23 23 24 23 23 23 25 26
33 38 40 42 36 29 24 16 19 21 21 19 21 23 24 19 18 22 23 15 12 11 13 20 25 23 24 25 24 21 20 20 22 24 25 25 25 25 25 24 22 23 24 24
Wind_Direction
255 249 251 254 257 258 259 259 250 253 250 258 260 260 265 267 269 266 266 268 269 271 273 276 278 280 281 285 289 292 296 303 309 316 323 325 335 333 328 330 333 343 328 340
259 257 254 255 257 258 262 261 257 252 249 253 257 259 262 265 268 269 268 264 265 268 269 272 275 276 278 281 282 286 291 298 307 313 323 324 335 333 329 330 335 340 333 335
265 263 262 262 263 263 264 256 255 253 247 253 258 258 260 263 264 264 265 267 268 267 268 270 270 271 273 274 276 279 284 292 300 308 319 317 330 332 324 328 333 333 341 336
264 264 263 263 263 260 257 256 259 256 257 257 259 259 262 263 265 264 265 265 267 268 269 270 271 270 271 272 273 273 278 287 293 302 313 316 326 330 327 325 328 334 340 346
255 264 265 263 264 265 263 261 261 260 258 257 257 259 262 263 265 266 267 269 268 266 268 269 269 269 269 269 270 271 275 282 288 297 307 311 323 326 325 322 322 334 336 344
264 259 259 263 263 263 263 262 262 262 262 262 264 265 266 266 265 266 268 268 267 266 265 264 265 267 267 267 268 271 273 276 282 294 300 309 320 325 323 325 318 334 338 344
263 263 262 263 263 263 263 263 262 262 263 264 264 263 264 268 270 268 266 265 265 264 262 261 261 260 261 261 265 268 270 273 277 289 296 308 319 323 323 328 316 331 334 342
263 264 264 264 265 266 266 265 264 263 261 262 264 266 268 267 267 268 267 265 265 262 263 263 260 258 260 259 259 260 264 269 276 283 292 304 316 320 320 323 321 318 327 337
264 266 267 268 268 269 268 269 267 266 264 268 269 268 269 267 266 266 267 265 264 262 261 258 260 257 255 257 256 255 258 261 266 277 286 302 312 320 318 322 329 328 326 337
267 269 271 271 271 270 270 271 270 269 268 270 271 271 268 270 271 271 270 267 261 260 259 253 253 253 251 247 251 249 249 253 256 264 279 295 304 315 318 317 333 333 336 341
269 269 269 270 271 271 271 271 270 270 270 268 271 269 272 269 269 267 258 249 252 250 251 254 250 246 242 243 242 242 242 243 245 253 272 289 298 309 315 313 328 329 336 339
269 269 270 271 271 272 272 269 268 266 270 269 264 266 268 262 260 245 238 245 243 243 255 263 258 249 233 230 231 237 235 240 239 247 258 277 291 300 311 307 315 330 330 330
270 270 270 270 271 270 269 269 263 259 263 266 265 264 248 247 244 246 243 241 244 248 255 245 246 245 219 224 229 228 225 224 232 237 249 265 280 292 305 306 309 320 338 332
271 270 268 268 267 268 266 265 257 254 257 261 255 250 237 236 238 260 258 247 243 247 244 219 229 244 233 233 230 225 219 216 219 226 237 253 268 281 298 301 299 306 328 347
269 268 266 264 263 263 263 259 246 246 254 253 239 232 224 229 250 251 252 245 229 224 228 232 230 218 212 227 220 213 208 207 217 217 229 245 257 269 291 295 294 290 309 322
266 264 262 260 257 256 255 247 234 239 248 256 236 205 216 240 246 223 237 234 229 230 229 228 214 197 212 221 215 207 200 203 212 213 222 236 249 263 279 292 291 281 266 287
261 260 259 256 252 247 247 232 222 233 236 250 244 217 221 242 225 223 228 225 218 203 213 224 214 209 215 221 207 201 198 201 208 210 218 232 245 254 264 271 277 272 265 250
263 260 256 252 247 242 236 221 225 225 235 249 244 231 254 215 201 206 196 202 206 215 221 216 211 218 215 213 201 197 198 200 206 209 216 229 239 258 256 266 263 274 266 259
261 258 252 246 242 235 230 220 223 223 232 244 241 239 249 208 178 199 199 200 204 209 212 215 223 229 218 205 199 198 200 204 207 212 219 229 237 247 261 260 271 269 268 267
257 255 246 237 234 229 215 213 217 220 232 236 231 241 240 220 204 185 217 213 214 217 221 223 229 221 207 205 202 205 207 209 213 217 222 231 237 244 252 264 257 266 277 273
246 251 239 230 219 209 205 207 211 225 231 226 227 250 236 213 221 222 227 219 233 247 242 236 228 209 203 201 208 211 213 215 219 222 227 234 239 244 250 252 262 260 261 269
244 241 225 214 204 198 203 203 211 218 227 227 240 243 228 208 217 216 219 242 250 252 240 229 211 201 200 199 203 208 214 218 223 228 233 238 244 248 251 254 255 257 261 258
238 228 204 196 188 194 198 198 196 196 250 263 225 224 224 216 219 231 244 244 245 245 227 223 211 203 194 199 205 209 213 219 225 231 238 241 244 248 252 257 255 251 252 259
224 203 189 183 186 191 194 195 187 185 225 232 228 218 216 215 220 218 220 234 241 223 210 203 189 185 194 202 210 214 216 222 227 231 236 240 246 253 257 257 258 252 253 253
197 186 179 182 185 194 200 190 186 192 191 217 219 203 197 196 204 219 229 249 236 220 213 207 200 199 200 203 211 215 218 221 224 227 233 241 248 254 258 259 256 255 253 250
187 179 180 182 190 199 197 189 197 181 192 197 176 172 189 195 213 228 240 246 237 222 214 205 199 191 193 200 206 209 212 216 220 228 236 242 247 250 252 256 257 252 248 253
181 175 179 188 193 188 176 175 189 174 173 164 171 187 198 199 228 236 238 241 227 202 192 176 177 189 192 197 199 203 209 217 224 231 236 239 243 246 249 253 258 256 256 259
Height
5643 5647 5650 5653 5655 5658 5662 5662 5665 5670 5674 5677 5679 5682 5685 5687 5687 5688 5690 5693 5693 5693 5694 5694 5694 5696 5694 5696 5692 5691 5687 5685 5684 5683 5679 5671 5664 5655 5647 5638 5631 5626 5614 5609
5630 5632 5636 5639 5641 5642 5645 5648 5650 5652 5658 5662 5668 5671 5673 5674 5675 5676 5678 5680 5682 5684 5684 5684 5686 5685 5687 5686 5686 5683 5680 5678 5676 5676 5673 5665 5660 5650 5640 5633 5627 5622 5613 5602
5617 5619 5622 5625 5626 5626 5628 5632 5635 5638 5644 5648 5653 5658 5661 5662 5662 5664 5666 5668 5670 5671 5672 5674 5675 5675 5676 5677 5677 5675 5672 5673 5672 5670 5668 5659 5655 5651 5640 5632 5626 5618 5614 5599
5606 5609 5609 5611 5612 5613 5616 5619 5623 5628 5633 5637 5640 5644 5648 5650 5650 5653 5654 5657 5658 5658 5658 5659 5661 5664 5665 5667 5668 5667 5665 5666 5666 5664 5661 5656 5650 5644 5639 5631 5624 5616 5609 5601
5595 5598 5597 5600 5602 5604 5607 5609 5613 5615 5620 5624 5628 5630 5634 5636 5637 5639 5643 5643 5644 5643 5645 5646 5650 5650 5654 5657 5658 5658 5659 5659 5658 5659 5656 5651 5647 5641 5635 5628 5621 5616 5608 5601
5584 5585 5587 5588 5591 5593 5596 5599 5601 5604 5608 5612 5615 5617 5619 5621 5620 5625 5628 5629 5628 5628 5630 5631 5635 5638 5643 5647 5649 5651 5651 5651 5650 5653 5650 5646 5643 5637 5631 5626 5618 5614 5607 5600
5574 5574 5575 5577 5578 5581 5583 5585 5588 5590 5596 5600 5600 5599 5601 5605 5606 5610 5612 5611 5611 5613 5613 5616 5620 5624 5629 5634 5639 5642 5643 5643 5643 5645 5643 5642 5638 5632 5627 5623 5616 5613 5606 5599
5561 5562 5561 5562 5563 5565 5567 5569 5571 5574 5581 5586 5584 5582 5585 5587 5588 5591 5594 5596 5596 5595 5597 5600 5604 5611 5616 5625 5628 5631 5634 5635 5635 5637 5637 5637 5636 5628 5624 5620 5616 5611 5605 5599
5546 5546 5546 5546 5547 5549 5550 5550 5552 5555 5564 5572 5563 5565 5566 5568 5569 5571 5575 5578 5576 5578 5579 5581 5589 5595 5603 5610 5616 5622 5625 5628 5629 5631 5630 5630 5629 5625 5620 5617 5613 5608 5603 5599
5530 5530 5530 5530 5530 5530 5531 5530 5530 5534 5545 5556 5543 5548 5547 5548 5551 5550 5557 5560 5560 5558 5561 5564 5571 5579 5588 5592 5601 5612 5615 5619 5623 5625 5624 5628 5624 5621 5617 5615 5613 5606 5602 5598
5514 5514 5513 5512 5512 5512 5512 5511 5510 5513 5521 5540 5524 5529 5535 5534 5534 5534 5547 5541 5544 5547 5548 5551 5556 5561 5571 5578 5587 5597 5605 5611 5616 5618 5620 5622 5620 5618 5615 5612 5608 5604 5601 5598
5496 5497 5495 5494 5494 5493 5492 5495 5494 5494 5498 5521 5509 5516 5521 5521 5522 5522 5528 5529 5534 5536 5538 5543 5545 5550 5561 5567 5571 5582 5594 5603 5610 5614 5616 5616 5616 5614 5611 5609 5606 5603 5600 5598
5477 5477 5477 5476 5475 5476 5476 5479 5480 5478 5482 5491 5497 5509 5508 5510 5512 5510 5512 5520 5525 5528 5532 5534 5537 5539 5548 5552 5561 5571 5583 5593 5600 5605 5611 5611 5611 5610 5608 5606 5604 5602 5600 5596
5458 5459 5460 5461 5460 5460 5463 5466 5469 5468 5471 5473 5492 5489 5496 5500 5503 5503 5505 5511 5513 5518 5519 5521 5526 5532 5539 5546 5554 5563 5575 5585 5593 5599 5603 5604 5607 5605 5604 5603 5601 5600 5599 5596
5440 5442 5444 5446 5448 5448 5450 5455 5460 5461 5464 5469 5471 5478 5488 5491 5491 5493 5495 5496 5501 5507 5510 5514 5519 5526 5530 5536 5543 5552 5567 5578 5585 5592 5595 5598 5601 5600 5600 5599 5598 5597 5597 5596
5426 5427 5430 5431 5434 5436 5438 5447 5452 5458 5458 5455 5459 5472 5479 5483 5483 5485 5486 5489 5493 5498 5504 5508 5512 5520 5524 5529 5536 5549 5559 5567 5575 5584 5588 5591 5595 5595 5596 5596 5595 5594 5594 5594
5412 5413 5415 5418 5421 5424 5428 5439 5447 5449 5449 5451 5455 5463 5470 5473 5475 5477 5481 5483 5488 5493 5498 5502 5508 5514 5517 5523 5532 5545 5552 5560 5568 5577 5581 5586 5589 5590 5591 5592 5591 5591 5591 5592
5400 5402 5404 5406 5410 5415 5422 5432 5436 5440 5442 5447 5448 5456 5460 5464 5468 5473 5476 5480 5484 5488 5493 5497 5502 5507 5512 5518 5532 5541 5548 5554 5562 5569 5574 5579 5583 5585 5586 5587 5589 5588 5588 5589
5389 5391 5393 5397 5402 5408 5417 5423 5428 5433 5438 5440 5443 5450 5455 5458 5463 5467 5474 5477 5481 5485 5488 5493 5497 5501 5506 5521 5531 5538 5544 5549 5556 5562 5567 5572 5576 5579 5581 5582 5584 5585 5586 5585
5380 5382 5384 5390 5396 5403 5410 5417 5422 5428 5433 5434 5440 5448 5451 5455 5461 5465 5470 5474 5478 5481 5486 5489 5491 5496 5506 5517 5527 5534 5538 5543 5550 5555 5561 5566 5570 5573 5575 5577 5578 5580 5581 5581
5372 5373 5378 5384 5389 5395 5404 5412 5420 5427 5428 5432 5440 5443 5447 5453 5457 5462 5466 5471 5475 5478 5482 5483 5486 5493 5502 5510 5520 5528 5534 5538 5544 5549 5554 5559 5563 5566 5569 5571 5572 5573 5575 5576
5365 5368 5373 5379 5386 5394 5402 5412 5419 5423 5427 5432 5437 5440 5445 5449 5454 5459 5464 5467 5469 5470 5474 5477 5483 5493 5499 5505 5513 5522 5528 5534 5539 5543 5548 5552 5556 5559 5561 5563 5565 5567 5568 5570
5360 5364 5370 5377 5385 5393 5402 5410 5416 5421 5426 5430 5434 5437 5441 5446 5451 5455 5458 5460 5461 5464 5467 5472 5480 5487 5495 5501 5508 5516 5523 5528 5533 5537 5542 5546 5549 5551 5554 5555 5557 5559 5561 5562
5357 5362 5369 5375 5385 5394 5402 5407 5413 5417 5422 5425 5430 5434 5438 5442 5447 5449 5452 5455 5457 5460 5464 5471 5477 5484 5490 5497 5503 5510 5517 5523 5527 5531 5536 5539 5542 5544 5546 5548 5549 5551 5553 5554
5354 5359 5366 5375 5384 5391 5398 5404 5410 5414 5418 5423 5427 5431 5436 5440 5444 5446 5449 5451 5453 5456 5462 5469 5476 5481 5487 5493 5499 5506 5511 5517 5522 5526 5529 5532 5534 5536 5538 5540 5541 5543 5545 5546
5352 5358 5366 5374 5382 5390 5397 5403 5407 5411 5415 5420 5424 5429 5434 5437 5440 5442 5444 5447 5451 5458 5460 5465 5472 5477 5482 5488 5495 5502 5507 5512 5516 5520 5523 5526 5527 5529 5531 5533 5534 5535 5537 5539
5350 5359 5368 5375 5383 5389 5395 5399 5404 5409 5414 5420 5424 5428 5432 5435 5436 5438 5441 5446 5450 5455 5460 5465 5471 5476 5481 5486 5491 5497 5502 5507 5511 5514 5516 5518 5520 5522 5524 5526 5527 5528 5530 5531